Terminal Aerodrome Forecast
Issued by NWS Jacksonville, FL

Home | Current Version | Previous Version | Text Only | Print | Product List | Glossary On
Versions: 1 2 3 4 5 6 7 8 9 10 11 12 13 14 15 16 17 18 19 20 21 22 23 24 25 26 27 28 29 30
224
FTUS42 KJAX 240054 AAA
TAFSSI
TAF AMD
KSSI 240054Z 2401/2424 15010KT P6SM SCT025 SCT060
     FM240200 18008KT P6SM VCSH SCT025
     FM240600 22006KT P6SM SCT010 SCT025
     FM241400 25009KT P6SM SCT030 BKN050
     FM242000 18010KT P6SM SCT035 BKN060=

USA.gov is the U.S. government's official web portal to all federal, state and local government web resources and services.